This is the latest recevied weather packets stored in our database for station/object KD0RII. If no packets are shown the sender has not sent any weather packets the latest 10 day(s).
| Time | Temp. | Humidity | Pressure | Rain* | Wind** | Luminosity | Snow |
|---|---|---|---|---|---|---|---|
| 1777667982 | 20.56° C | 30% | 1019.1 hPa | 0 mm | - | 779 W/m² | - |
| 1777667678 | 19.44° C | 33% | 1019.2 hPa | 0 mm | - | 767 W/m² | - |
| 1777667376 | 18.89° C | 34% | 1019.4 hPa | 0 mm | - | 800 W/m² | - |
| 1777667072 | 18.89° C | 32% | 1019.3 hPa | 0 mm | - | 296 W/m² | - |
| 1777666769 | 19.44° C | 33% | 1019.3 hPa | 0 mm | - | 802 W/m² | - |
| 1777666466 | 20° C | 34% | 1019.5 hPa | 0 mm | - | 306 W/m² | - |
| 1777666163 | 20° C | 32% | 1019.6 hPa | 0 mm | - | 318 W/m² | - |
| 1777665860 | 20.56° C | 33% | 1019.5 hPa | 0 mm | - | 246 W/m² | - |
| 1777665558 | 20.56° C | 34% | 1019.6 hPa | 0 mm | - | 266 W/m² | - |
| 1777665254 | 20.56° C | 33% | 1019.6 hPa | 0 mm | - | 467 W/m² | - |
| 1777664950 | 20.56° C | 34% | 1019.8 hPa | 0 mm | - | 388 W/m² | - |
| 1777664646 | 21.11° C | 32% | 1019.7 hPa | 0 mm | - | 333 W/m² | - |
| 1777664342 | 20.56° C | 35% | 1019.9 hPa | 0 mm | - | 827 W/m² | - |
| 1777664041 | 20° C | 41% | 1019.9 hPa | 0 mm | - | 877 W/m² | - |
| 1777663738 | 19.44° C | 35% | 1019.9 hPa | 0 mm | - | 191 W/m² | - |
| 1777663435 | 20.56° C | 33% | 1019.9 hPa | 0 mm | - | 207 W/m² | - |
| 1777663132 | 21.11° C | 36% | 1019.8 hPa | 0 mm | - | 790 W/m² | - |
| 1777662829 | 21.67° C | 32% | 1020.2 hPa | 0 mm | - | 933 W/m² | - |
| 1777662526 | 21.11° C | 39% | 1020.3 hPa | 0 mm | - | 994 W/m² | - |
| 1777662222 | 20.56° C | 32% | 1019.9 hPa | 0 mm | - | 346 W/m² | - |
| 1777661917 | 20.56° C | 34% | 1020.2 hPa | 0 mm | - | 962 W/m² | - |
| 1777661613 | 18.89° C | 34% | 1020.2 hPa | 0 mm | - | 960 W/m² | - |
| 1777661309 | 18.89° C | 37% | 1020.3 hPa | 0 mm | - | 289 W/m² | - |
| 1777661005 | 18.89° C | 36% | 1020.3 hPa | 0 mm | - | 371 W/m² | - |
| 1777660701 | 19.44° C | 34% | 1020.4 hPa | 0 mm | - | 940 W/m² | - |
* Rain latest hour (hover to see other rain measurements)
** Current wind speed in m/s (hover to see current wind gust speed)